Regional Weather Roundup
Issued by NWS

Home | Current Version | Previous Version | Graphics & Text | Print | Product List | Glossary On
Versions: 1 2 3 4 5 6 7 8 9 10 11 12 13 14 15 16 17 18 19 20 21 22 23 24 25 26 27 28 29 30 31 32 33 34 35 36 37 38 39 40 41 42 43 44 45 46 47 48 49 50
988
ASUS45 KBOI 201510
RWRID

IDAHO REGIONAL WEATHER ROUNDUP
NATIONAL WEATHER SERVICE BOISE ID
900 AM MDT FRI OCT 20 2017

NOTE: "FAIR" INDICATES FEW OR NO CLOUDS BELOW 12000 FEET
WITH NO SIGNIFICANT WEATHER AND/OR OBSTRUCTIONS TO VISIBILITY

IDZ012-014-201600-
SOUTHWEST IDAHO


CITY           SKY/WX    TMP DP  RH WIND       PRES   REMARKS
BOISE          LGT RAIN  41 N/A N/A W13G25    29.73R
CALDWELL       LGT RAIN  43  40  89 SW7       29.73R
MOUNTAIN HOME  LGT RAIN  41  40  96 W17G31    29.73R
$$

IDZ016-017-201600-
SOUTHCENTRAL IDAHO


CITY           SKY/WX    TMP DP  RH WIND       PRES   REMARKS
BURLEY         LGT RAIN  44  34  67 W35G45    29.62R
JEROME         LGT RAIN  39  39 100 SW33G45   29.72R FOG     WCI  27
TWIN FALLS     RAIN      38  37  97 SW35G44   29.71R FOG     WCI  25
$$

IDZ019>023-201600-
SOUTHEAST IDAHO


CITY           SKY/WX    TMP DP  RH WIND       PRES   REMARKS
IDAHO FALLS    CLOUDY    52  33  48 S9        29.51R
POCATELLO      CLOUDY    56  32  40 S13       29.53R
REXBURG        CLOUDY    40  29  64 S3        29.51R
$$

IDZ006-010-011-018-031-032-201600-
CENTRAL IDAHO MOUNTAINS


CITY           SKY/WX    TMP DP  RH WIND       PRES   REMARKS
MCCALL         LGT SNOW  33  32  96 CALM      29.59R VSB 1
HAILEY         LGT RAIN  45  30  57 SE12G31   29.54R
STANLEY          N/A     40  34  79 NW12G20   29.52R WCI  33
SALMON         CLOUDY    38  25  59 N6        29.34F WCI  33
CHALLIS        MOCLDY    50  33  52 S14G23    29.40F
$$

IDZ002-004-006-007-026-201600-
NORTHERN IDAHO


CITY           SKY/WX    TMP DP  RH WIND       PRES   REMARKS
LEWISTON       LGT RAIN  47  42  83 S7        29.60R
LOWELL           N/A     41  40  96 CALM      29.65R
COEUR D`ALENE  LGT RAIN  42  40  92 CALM      29.55R
MULLAN PASS    SNOW      29  27  92 W5        29.49R VSB 1/4 WCI  24
$$




USA.gov is the U.S. government's official web portal to all federal, state and local government web resources and services.